Flag for U.S.A. Weather past 2 weeks in Houston, Texas, U.S.A.

Now
80 °F

Sunny.


Feels Like: 80 °F
Forecast: 58 / 85 °F
Wind: No wind

Location: Houston Hobby Airport

Current Time: Oct 25, 2014 at 1:23:26 PM

Latest Report: Oct 25, 2014 at 12:53 PM


Visibility: 10 mi

Pressure: 30.16 "Hg

Humidity: 41%

Dew point: 54 °F

Location of HoustonLocation

Historic Weather in Houston — Graph

°F

Houston temperature yesterday

Maximum temperature yesterday: 80 °F (at 3:53 PM)
Minimum temperature yesterday: 58 °F (at 6:53 AM)
Average temperature yesterday: 68 °F

Past Weeks' High & Low Weather Summary

 TemperatureHumidityPressure
High90 °F (Oct 10, 3:53 PM)100% (Oct 13, 1:00 PM)30.20 "Hg (Oct 13, 1:00 PM)
Low54 °F (Oct 15, 5:53 AM)26% (Oct 15, 3:53 PM)29.73 "Hg (Oct 13, 7:53 AM)
Average72 °F71%30.01 "Hg
* Reported Oct 10 11:53 AM — Oct 25 11:53 AM, Houston, Weather by CustomWeather, © 2014

Note: Actual official high and low records may vary slightly from our data, if they occured in-between our weather recording intervals... More about our weather records

Advertising

Houston weather history for previous 24 hours

 ConditionsComfort  
Time TempWeatherWind HumidityBarometerVisibility
11:53 AM
Oct 25
77 °FSunny.5 mph44%30.19 "Hg10 mi
10:53 AM75 °FSunny.No wind55%30.20 "Hg10 mi
9:53 AM72 °FSunny.3 mph57%30.19 "Hg9 mi
8:53 AM66 °FSunny.No wind73%30.18 "Hg10 mi
7:53 AM59 °FClear.No wind90%30.16 "Hg10 mi
6:53 AM58 °FClear.No wind93%30.15 "Hg10 mi
5:53 AM58 °FClear.No wind93%30.14 "Hg10 mi
4:53 AM60 °FClear.No wind90%30.14 "Hg10 mi
3:53 AM60 °FClear.No wind90%30.13 "Hg10 mi
2:53 AM60 °FClear.No wind93%30.13 "Hg10 mi
1:53 AM61 °FClear.No wind87%30.14 "Hg10 mi
12:53 AM62 °FPassing clouds.No wind83%30.14 "Hg10 mi
11:53 PM
Oct 24
63 °FPassing clouds.No wind84%30.15 "Hg10 mi
10:53 PM65 °FClear.No wind78%30.15 "Hg10 mi
9:53 PM66 °FClear.No wind75%30.15 "Hg10 mi
8:53 PM68 °FClear.No wind73%30.13 "Hg10 mi
7:53 PM70 °FClear.No wind66%30.11 "Hg10 mi
6:53 PM74 °FScattered clouds.5 mph56%30.10 "Hg10 mi
5:53 PM78 °FPassing clouds.6 mph46%30.09 "Hg10 mi
4:53 PM80 °FSunny.7 mph42%30.09 "Hg10 mi
3:53 PM80 °FSunny.6 mph39%30.09 "Hg10 mi
2:53 PM79 °FSunny.8 mph39%30.10 "Hg10 mi
1:53 PM77 °FSunny.8 mph39%30.13 "Hg10 mi
Weather by CustomWeather, © 2014

See weather overviewHow to use our weather pages